Flag for Germany Weather past 2 weeks in Ibbenbüren, North Rhine-Westphalia, Germany

Now
46 °F

Light rain. Fog.


Feels Like: 42 °F
Forecast: 35 / 51 °F
Wind: 8 mph from North

Location: Muenster / Osnabrueck

Current Time: Apr 27, 2015 at 4:49:47 AM

Latest Report: Apr 27, 2015 at 4:20 AM


Visibility: 3 mi

Pressure: 29.65 "Hg

Humidity: 100%

Dew point: 46 °F

Location of IbbenbürenLocation

Historic Weather in Ibbenbüren — Graph

°F

Ibbenbüren temperature yesterday

Maximum temperature yesterday: 63 °F (at 1:20 PM)
Minimum temperature yesterday: 50 °F (at 2:20 AM)
Average temperature yesterday: 55 °F

Past Weeks' High & Low Weather Summary

 TemperatureHumidityPressure
High73 °F (Apr 15, 2:50 PM)100% (Apr 12, 4:50 AM)30.45 "Hg (Apr 12, 4:50 AM)
Low32 °F (Apr 18, 5:50 AM)28% (Apr 21, 3:20 PM)29.65 "Hg (Apr 27, 2:20 AM)
Average51 °F69%30.13 "Hg
* Reported Apr 12 3:20 AM — Apr 27 3:50 AM, Ibbenbüren, Weather by CustomWeather, © 2015

Note: Actual official high and low records may vary slightly from our data, if they occured in-between our weather recording intervals... More about our weather records

Advertising

Ibbenbüren weather history for previous 24 hours

 ConditionsComfort  
Time TempWeatherWind HumidityBarometerVisibility
3:50 AM
Mon, Apr 27
46 °FLight rain. Fog.8 mph100%29.65 "Hg3 mi
3:20 AM46 °FLight rain. Fog.7 mph100%29.65 "Hg3 mi
2:50 AM48 °FLight rain. Fog.6 mph100%29.65 "Hg3 mi
2:20 AM48 °FLight rain. Fog.7 mph100%29.65 "Hg3 mi
1:50 AM48 °FRain. Fog.6 mph100%29.68 "Hg2 mi
1:20 AM48 °FLight rain. Fog.7 mph100%29.68 "Hg3 mi
12:50 AM48 °FLight rain. Fog.6 mph100%29.68 "Hg3 mi
12:20 AM50 °FLight rain. Fog.6 mph100%29.68 "Hg3 mi
11:50 PM
Sun, Apr 26
50 °FLight rain. Fog.7 mph100%29.68 "Hg3 mi
11:20 PM50 °FLight rain. Passing clouds.8 mph100%29.68 "Hg4 mi
10:50 PM50 °FPassing clouds.7 mph100%29.68 "Hg4 mi
10:20 PM50 °FPassing clouds.6 mph100%29.68 "Hg3 mi
9:50 PM52 °FPassing clouds.6 mph100%29.68 "Hg4 mi
9:20 PM52 °FBroken clouds.5 mph100%29.68 "Hg4 mi
8:50 PM52 °FLight rain. Partly sunny.5 mph100%29.68 "Hg4 mi
8:20 PM52 °FLight rain. Broken clouds.5 mph100%29.68 "Hg4 mi
7:50 PM52 °FLight rain. Fog.5 mph100%29.68 "Hg3 mi
7:20 PM54 °FLight rain. Fog.8 mph94%29.68 "Hg2 mi
6:50 PM54 °FLight rain. Broken clouds.8 mph94%29.68 "Hg3 mi
6:20 PM55 °FSprinkles. Broken clouds.8 mph88%29.68 "Hg4 mi
5:50 PM59 °FSprinkles. Broken clouds.8 mph77%29.68 "HgN/A
5:20 PM61 °FBroken clouds.7 mph72%29.68 "HgN/A
4:50 PM59 °FBroken clouds.6 mph77%29.68 "HgN/A
4:20 PM61 °FBroken clouds.8 mph72%29.68 "HgN/A
3:50 PM61 °FBroken clouds.10 mph72%29.68 "HgN/A
3:20 PM63 °FScattered clouds.10 mph59%29.68 "HgN/A
2:50 PM61 °FScattered clouds.10 mph63%29.68 "HgN/A
2:20 PM63 °FScattered clouds.14 mph59%29.68 "HgN/A
1:50 PM63 °FBroken clouds.15 mph59%29.71 "HgN/A
1:20 PM63 °FScattered clouds.14 mph59%29.71 "HgN/A
12:50 PM61 °FScattered clouds.15 mph68%29.71 "HgN/A
12:20 PM61 °FBroken clouds.13 mph68%29.71 "HgN/A
11:50 AM59 °FBroken clouds.7 mph77%29.71 "HgN/A
11:20 AM57 °FSprinkles. Broken clouds.9 mph82%29.71 "HgN/A
10:50 AM57 °FBroken clouds.9 mph88%29.71 "HgN/A
10:20 AM55 °FBroken clouds.10 mph94%29.71 "HgN/A
9:50 AM55 °FBroken clouds.9 mph94%29.71 "Hg6 mi
9:20 AM54 °FPartly sunny.7 mph100%29.71 "Hg5 mi
8:50 AM54 °FPartly sunny.6 mph100%29.71 "Hg5 mi
8:20 AM54 °FLight rain. Partly sunny.5 mph100%29.71 "Hg4 mi
7:50 AM52 °FLight rain. Fog.5 mph100%29.71 "Hg2 mi
7:20 AM52 °FLight rain. Fog.3 mph100%29.71 "Hg1 mi
6:50 AM52 °FLight rain. Fog.5 mph100%29.71 "Hg2 mi
6:20 AM52 °FLight rain. Fog.5 mph100%29.71 "Hg2 mi
5:50 AM52 °FLight rain. Fog.5 mph100%29.71 "Hg1 mi
5:20 AM52 °FLight rain. Fog.6 mph100%29.71 "Hg2 mi
4:50 AM52 °FLight rain. Partly cloudy.6 mph100%29.71 "Hg3 mi
4:20 AM52 °FLight rain. Partly cloudy.6 mph100%29.71 "Hg4 mi
Weather by CustomWeather, © 2015

See weather overviewHow to use our weather pages